When you browse on this site, cookies collect data to enhance your experience and personalize the content and advertising you see.
Visit our Privacy Policy to learn more. By continuing to use the site, you agree to this use of cookies and data.
  • In Schweiz
  • Länderverzeichnis
  • Für 7 Tage
  • Wassertemperatur
  • Wetterkarte
  • Widgets
  • user-avatar
    Anmelden

    Stündliche Wetter Baraki Barak

    Heute, 23 Januar, Donnerstag

    Zeit Temperatur Niederschläge Wind Luftdruck Luftfeuchtigkeit
    00:00 -12°C° 0 mm 1 m/S 595 mmHg 67%
    01:00 -12°C° 0 mm 1 m/S 594 mmHg 65%
    02:00 -12°C° 0 mm 1 m/S 594 mmHg 64%
    03:00 -13°C° 0 mm 1 m/S 594 mmHg 63%
    04:00 -13°C° 0 mm 1 m/S 593 mmHg 62%
    05:00 -13°C° 0 mm 1 m/S 593 mmHg 62%
    06:00 -13°C° 0 mm 1 m/S 593 mmHg 60%
    07:00 -12°C° 0 mm 1 m/S 594 mmHg 59%
    08:00 -12°C° 0 mm 1 m/S 594 mmHg 57%
    09:00 -10°C° 0 mm 1 m/S 594 mmHg 59%
    10:00 -8°C° 0 mm 1 m/S 595 mmHg 60%
    11:00 -6°C° 0 mm 1 m/S 596 mmHg 61%
    12:00 -4°C° 0 mm 1 m/S 595 mmHg 62%
    13:00 -3°C° 0 mm 1 m/S 595 mmHg 64%
    14:00 -2°C° 0 mm 1 m/S 594 mmHg 65%
    15:00 -3°C° 0 mm 1 m/S 594 mmHg 67%
    16:00 -5°C° 0 mm 0 m/S 593 mmHg 68%
    17:00 -7°C° 0 mm 0 m/S 592 mmHg 69%
    18:00 -8°C° 0 mm 0 m/S 592 mmHg 67%
    19:00 -8°C° 0 mm 0 m/S 593 mmHg 64%
    20:00 -9°C° 0 mm 0 m/S 593 mmHg 62%
    21:00 -9°C° 0 mm 1 m/S 593 mmHg 60%
    22:00 -9°C° 0 mm 1 m/S 593 mmHg 58%
    23:00 -8°C° 0 mm 1 m/S 594 mmHg 56%

    Morgen, 24 Januar, Freitag

    Zeit Temperatur Niederschläge Wind Luftdruck Luftfeuchtigkeit
    00:00 -9°C° 0 mm 1 m/S 593 mmHg 56%
    01:00 -9°C° 0 mm 1 m/S 593 mmHg 55%
    02:00 -9°C° 0 mm 0 m/S 593 mmHg 54%
    03:00 -9°C° 0 mm 0 m/S 592 mmHg 55%
    04:00 -9°C° 0 mm 0 m/S 592 mmHg 55%
    05:00 -9°C° 0 mm 0 m/S 591 mmHg 55%
    06:00 -8°C° 0 mm 0 m/S 592 mmHg 57%
    07:00 -8°C° 0 mm 1 m/S 592 mmHg 59%
    08:00 -7°C° 0 mm 1 m/S 592 mmHg 61%
    09:00 -6°C° 0.1 mm 0 m/S 593 mmHg 65%
    10:00 -4°C° 0.1 mm 0 m/S 593 mmHg 69%
    11:00 -2°C° 0.1 mm 0 m/S 593 mmHg 72%
    12:00 -1°C° 0.2 mm 1 m/S 593 mmHg 80%
    13:00 -1°C° 0.2 mm 1 m/S 592 mmHg 87%
    14:00 -1°C° 0.2 mm 1 m/S 591 mmHg 94%
    15:00 -1°C° 0.1 mm 1 m/S 591 mmHg 95%
    16:00 -2°C° 0.1 mm 1 m/S 591 mmHg 95%
    17:00 -2°C° 0.1 mm 1 m/S 591 mmHg 96%
    18:00 -3°C° 0 mm 1 m/S 591 mmHg 95%
    19:00 -4°C° 0 mm 1 m/S 591 mmHg 94%
    20:00 -6°C° 0 mm 1 m/S 591 mmHg 94%
    21:00 -6°C° 0 mm 1 m/S 591 mmHg 93%
    22:00 -6°C° 0 mm 1 m/S 591 mmHg 93%
    23:00 -7°C° 0 mm 0 m/S 591 mmHg 92%

    übermorgen, 25 Januar, Samstag

    Zeit Temperatur Niederschläge Wind Luftdruck Luftfeuchtigkeit
    00:00 -7°C° 0 mm 0 m/S 591 mmHg 92%
    01:00 -6°C° 0 mm 0 m/S 591 mmHg 92%
    02:00 -6°C° 0 mm 0 m/S 591 mmHg 92%
    03:00 -6°C° 0.1 mm 0 m/S 592 mmHg 93%
    04:00 -6°C° 0.1 mm 1 m/S 592 mmHg 93%
    05:00 -6°C° 0.1 mm 1 m/S 592 mmHg 94%
    06:00 -6°C° 0 mm 1 m/S 592 mmHg 93%
    07:00 -6°C° 0 mm 1 m/S 592 mmHg 93%
    08:00 -7°C° 0 mm 1 m/S 592 mmHg 92%
    09:00 -6°C° 0 mm 1 m/S 592 mmHg 90%
    10:00 -3°C° 0 mm 1 m/S 593 mmHg 87%
    11:00 -2°C° 0 mm 1 m/S 593 mmHg 85%
    12:00 -2°C° 0 mm 1 m/S 593 mmHg 84%
    13:00 -2°C° 0 mm 0 m/S 592 mmHg 83%
    14:00 -1°C° 0 mm 0 m/S 592 mmHg 82%
    15:00 -2°C° 0 mm 0 m/S 592 mmHg 84%
    16:00 -3°C° 0 mm 0 m/S 591 mmHg 85%
    17:00 -5°C° 0 mm 0 m/S 591 mmHg 87%
    18:00 -6°C° 0 mm 0 m/S 591 mmHg 85%
    19:00 -7°C° 0 mm 0 m/S 591 mmHg 83%
    20:00 -8°C° 0 mm 1 m/S 592 mmHg 82%
    21:00 -8°C° 0 mm 1 m/S 592 mmHg 79%
    22:00 -8°C° 0 mm 1 m/S 592 mmHg 76%
    23:00 -9°C° 0 mm 1 m/S 592 mmHg 74%

    26 Januar, Sonntag

    Zeit Temperatur Niederschläge Wind Luftdruck Luftfeuchtigkeit
    00:00 -9°C° 0 mm 1 m/S 591 mmHg 72%
    01:00 -10°C° 0 mm 1 m/S 591 mmHg 70%
    02:00 -10°C° 0 mm 1 m/S 591 mmHg 68%
    03:00 -11°C° 0 mm 1 m/S 591 mmHg 67%
    04:00 -11°C° 0 mm 1 m/S 590 mmHg 65%
    05:00 -11°C° 0 mm 1 m/S 590 mmHg 64%
    06:00 -11°C° 0 mm 1 m/S 590 mmHg 62%
    07:00 -11°C° 0 mm 1 m/S 590 mmHg 59%
    08:00 -11°C° 0 mm 1 m/S 590 mmHg 57%
    09:00 -9°C° 0 mm 1 m/S 591 mmHg 57%
    10:00 -7°C° 0 mm 1 m/S 592 mmHg 58%
    11:00 -4°C° 0 mm 1 m/S 592 mmHg 58%
    12:00 -5°C° 0 mm 0 m/S 592 mmHg 59%
    13:00 -4°C° 0 mm 0 m/S 591 mmHg 61%
    14:00 -3°C° 0 mm 0 m/S 591 mmHg 63%
    15:00 -5°C° 0 mm 0 m/S 590 mmHg 64%
    16:00 -6°C° 0 mm 0 m/S 589 mmHg 65%
    17:00 -7°C° 0 mm 0 m/S 589 mmHg 67%
    18:00 -8°C° 0 mm 0 m/S 589 mmHg 65%
    19:00 -9°C° 0 mm 0 m/S 589 mmHg 64%
    20:00 -9°C° 0 mm 1 m/S 589 mmHg 62%
    21:00 -9°C° 0 mm 1 m/S 589 mmHg 62%
    22:00 -9°C° 0 mm 1 m/S 589 mmHg 62%
    23:00 -9°C° 0 mm 1 m/S 590 mmHg 62%

    27 Januar, Montag

    Zeit Temperatur Niederschläge Wind Luftdruck Luftfeuchtigkeit
    00:00 -10°C° 0 mm 1 m/S 589 mmHg 62%
    01:00 -10°C° 0 mm 1 m/S 589 mmHg 62%
    02:00 -10°C° 0 mm 1 m/S 589 mmHg 62%
    03:00 -10°C° 0 mm 1 m/S 589 mmHg 62%
    04:00 -10°C° 0 mm 1 m/S 588 mmHg 62%
    05:00 -10°C° 0 mm 1 m/S 588 mmHg 61%
    06:00 -10°C° 0 mm 1 m/S 589 mmHg 61%
    07:00 -10°C° 0 mm 1 m/S 589 mmHg 60%
    08:00 -10°C° 0 mm 1 m/S 589 mmHg 60%
    09:00 -9°C° 0 mm 1 m/S 590 mmHg 61%
    10:00 -7°C° 0 mm 1 m/S 590 mmHg 61%
    11:00 -4°C° 0 mm 1 m/S 591 mmHg 62%
    12:00 -3°C° 0 mm 1 m/S 590 mmHg 63%
    13:00 -3°C° 0 mm 1 m/S 590 mmHg 64%
    14:00 -2°C° 0 mm 1 m/S 590 mmHg 65%
    15:00 -3°C° 0 mm 1 m/S 589 mmHg 67%
    16:00 -5°C° 0 mm 0 m/S 589 mmHg 69%
    17:00 -6°C° 0 mm 0 m/S 589 mmHg 71%
    18:00 -7°C° 0 mm 0 m/S 589 mmHg 69%
    19:00 -8°C° 0 mm 1 m/S 589 mmHg 67%
    20:00 -9°C° 0 mm 1 m/S 590 mmHg 65%
    21:00 -9°C° 0 mm 1 m/S 590 mmHg 64%
    22:00 -10°C° 0 mm 1 m/S 590 mmHg 63%
    23:00 -10°C° 0 mm 1 m/S 590 mmHg 62%

    28 Januar, Dienstag

    Zeit Temperatur Niederschläge Wind Luftdruck Luftfeuchtigkeit
    00:00 -13°C° 0 mm 2 m/S 590 mmHg 62%
    01:00 -13°C° 0 mm 2 m/S 589 mmHg 61%
    02:00 -14°C° 0 mm 2 m/S 589 mmHg 61%
    03:00 -14°C° 0 mm 2 m/S 589 mmHg 61%
    04:00 -15°C° 0 mm 2 m/S 589 mmHg 61%
    05:00 -15°C° 0 mm 2 m/S 588 mmHg 62%
    06:00 -15°C° 0 mm 2 m/S 589 mmHg 62%
    07:00 -15°C° 0 mm 2 m/S 589 mmHg 62%
    08:00 -16°C° 0 mm 2 m/S 589 mmHg 62%
    09:00 -14°C° 0 mm 2 m/S 589 mmHg 63%
    10:00 -10°C° 0 mm 1 m/S 590 mmHg 63%
    11:00 -8°C° 0 mm 1 m/S 590 mmHg 64%
    12:00 -7°C° 0 mm 1 m/S 590 mmHg 64%
    13:00 -6°C° 0 mm 1 m/S 589 mmHg 63%
    14:00 -4°C° 0 mm 1 m/S 589 mmHg 63%
    15:00 -7°C° 0 mm 1 m/S 588 mmHg 65%
    16:00 -8°C° 0 mm 1 m/S 588 mmHg 66%
    17:00 -9°C° 0 mm 0 m/S 588 mmHg 67%
    18:00 -10°C° 0 mm 1 m/S 588 mmHg 64%
    19:00 -10°C° 0 mm 1 m/S 589 mmHg 60%
    20:00 -11°C° 0 mm 1 m/S 589 mmHg 57%
    21:00 -12°C° 0 mm 1 m/S 589 mmHg 57%
    22:00 -12°C° 0 mm 1 m/S 589 mmHg 56%
    23:00 -12°C° 0 mm 1 m/S 589 mmHg 55%
    Mehr zeigen